• In Austria
  • List of Countries
  • For 7 days
  • Water Temperature
  • Satellite Maps
  • Weather Map
  • News
  • Weather Widgets
  • user-avatar
    Login

    Hourly Weather Sydney

    Today, 25 February, Sunday

    Time Temperature Precipitation Wind Pressure Humidity
    00:00 +28°C° 0 mm 5 mps 752 mmHg 63%
    01:00 +27°C° 0 mm 4 mps 752 mmHg 65%
    02:00 +27°C° 0.3 mm 4 mps 752 mmHg 69%
    03:00 +26°C° 0.3 mm 4 mps 752 mmHg 74%
    04:00 +25°C° 0 mm 3 mps 752 mmHg 78%
    05:00 +25°C° 0.3 mm 4 mps 752 mmHg 81%
    06:00 +25°C° 0.3 mm 5 mps 753 mmHg 83%
    07:00 +24°C° 0.3 mm 6 mps 753 mmHg 85%
    08:00 +24°C° 0.2 mm 6 mps 754 mmHg 85%
    09:00 +24°C° 0.2 mm 6 mps 754 mmHg 84%
    10:00 +24°C° 0.2 mm 7 mps 754 mmHg 84%
    11:00 +23°C° 0.3 mm 6 mps 754 mmHg 85%
    12:00 +22°C° 0.3 mm 6 mps 754 mmHg 85%
    13:00 +22°C° 0.3 mm 6 mps 754 mmHg 86%
    14:00 +21°C° 1.4 mm 6 mps 755 mmHg 88%
    15:00 +21°C° 1.4 mm 6 mps 755 mmHg 89%
    16:00 +20°C° 1.4 mm 6 mps 755 mmHg 91%
    17:00 +20°C° 1.3 mm 6 mps 755 mmHg 91%
    18:00 +20°C° 1.3 mm 6 mps 755 mmHg 92%
    19:00 +20°C° 1.3 mm 5 mps 756 mmHg 93%
    20:00 +20°C° 2.1 mm 6 mps 756 mmHg 93%
    21:00 +20°C° 2.1 mm 7 mps 756 mmHg 93%
    22:00 +20°C° 2.1 mm 8 mps 757 mmHg 93%
    23:00 +20°C° 2.4 mm 8 mps 756 mmHg 93%

    Tomorrow, 26 February, Monday

    Time Temperature Precipitation Wind Pressure Humidity
    00:00 +20°C° 2.4 mm 8 mps 756 mmHg 92%
    01:00 +20°C° 2.4 mm 8 mps 756 mmHg 92%
    02:00 +18°C° 1.8 mm 8 mps 756 mmHg 91%
    03:00 +18°C° 1.8 mm 9 mps 757 mmHg 89%
    04:00 +17°C° 1.8 mm 9 mps 757 mmHg 88%
    05:00 +17°C° 0.2 mm 8 mps 757 mmHg 87%
    06:00 +17°C° 0.2 mm 8 mps 758 mmHg 87%
    07:00 +17°C° 0.2 mm 8 mps 759 mmHg 86%
    08:00 +18°C° 0.2 mm 8 mps 759 mmHg 83%
    09:00 +18°C° 0.2 mm 8 mps 759 mmHg 81%
    10:00 +18°C° 0.2 mm 8 mps 760 mmHg 79%
    11:00 +20°C° 0 mm 7 mps 760 mmHg 75%
    12:00 +20°C° 0 mm 7 mps 760 mmHg 72%
    13:00 +21°C° 0 mm 7 mps 760 mmHg 69%
    14:00 +21°C° 0 mm 7 mps 760 mmHg 64%
    15:00 +22°C° 0 mm 7 mps 760 mmHg 60%
    16:00 +23°C° 0 mm 7 mps 760 mmHg 55%
    17:00 +22°C° 0 mm 7 mps 760 mmHg 60%
    18:00 +21°C° 0 mm 6 mps 761 mmHg 65%
    19:00 +19°C° 0 mm 6 mps 761 mmHg 70%
    20:00 +19°C° 0 mm 6 mps 762 mmHg 72%
    21:00 +17°C° 0 mm 5 mps 762 mmHg 75%
    22:00 +17°C° 0 mm 5 mps 762 mmHg 77%
    23:00 +16°C° 0 mm 5 mps 762 mmHg 79%

    Day after tomorrow, 27 February, Tuesday

    Time Temperature Precipitation Wind Pressure Humidity
    00:00 +16°C° 0 mm 5 mps 762 mmHg 81%
    01:00 +17°C° 0 mm 4 mps 762 mmHg 83%
    02:00 +15°C° 0 mm 4 mps 762 mmHg 83%
    03:00 +15°C° 0 mm 4 mps 762 mmHg 84%
    04:00 +15°C° 0 mm 4 mps 762 mmHg 85%
    05:00 +17°C° 0 mm 4 mps 762 mmHg 82%
    06:00 +17°C° 0 mm 4 mps 763 mmHg 79%
    07:00 +18°C° 0 mm 4 mps 763 mmHg 76%
    08:00 +20°C° 0 mm 4 mps 763 mmHg 68%
    09:00 +22°C° 0 mm 4 mps 763 mmHg 60%
    10:00 +25°C° 0 mm 4 mps 763 mmHg 52%
    11:00 +26°C° 0 mm 3 mps 763 mmHg 50%
    12:00 +26°C° 0 mm 3 mps 762 mmHg 47%
    13:00 +27°C° 0 mm 3 mps 762 mmHg 45%
    14:00 +27°C° 0 mm 3 mps 761 mmHg 46%
    15:00 +27°C° 0 mm 3 mps 761 mmHg 46%
    16:00 +27°C° 0 mm 3 mps 761 mmHg 47%
    17:00 +25°C° 0 mm 3 mps 761 mmHg 54%
    18:00 +22°C° 0 mm 3 mps 761 mmHg 61%
    19:00 +20°C° 0 mm 3 mps 762 mmHg 69%
    20:00 +19°C° 0 mm 2 mps 762 mmHg 72%
    21:00 +19°C° 0 mm 2 mps 762 mmHg 75%
    22:00 +19°C° 0 mm 1 mps 762 mmHg 79%
    23:00 +18°C° 0 mm 2 mps 762 mmHg 81%

    28 February, Wednesday

    Time Temperature Precipitation Wind Pressure Humidity
    00:00 +17°C° 0 mm 2 mps 762 mmHg 84%
    01:00 +17°C° 0 mm 2 mps 761 mmHg 86%
    02:00 +16°C° 0 mm 2 mps 761 mmHg 87%
    03:00 +16°C° 0 mm 2 mps 760 mmHg 89%
    04:00 +15°C° 0 mm 2 mps 760 mmHg 90%
    05:00 +16°C° 0 mm 2 mps 760 mmHg 87%
    06:00 +17°C° 0 mm 3 mps 760 mmHg 83%
    07:00 +17°C° 0 mm 3 mps 760 mmHg 79%
    08:00 +21°C° 0 mm 3 mps 759 mmHg 67%
    09:00 +25°C° 0 mm 3 mps 759 mmHg 54%
    10:00 +28°C° 0 mm 4 mps 759 mmHg 42%
    11:00 +32°C° 0 mm 4 mps 758 mmHg 36%
    12:00 +35°C° 0 mm 4 mps 757 mmHg 31%
    13:00 +38°C° 0 mm 4 mps 756 mmHg 25%
    14:00 +38°C° 0 mm 4 mps 756 mmHg 26%
    15:00 +39°C° 0 mm 5 mps 755 mmHg 27%
    16:00 +39°C° 0 mm 5 mps 754 mmHg 28%
    17:00 +35°C° 0 mm 5 mps 755 mmHg 37%
    18:00 +32°C° 0 mm 4 mps 755 mmHg 46%
    19:00 +28°C° 0 mm 4 mps 755 mmHg 55%
    20:00 +28°C° 0 mm 4 mps 755 mmHg 57%
    21:00 +27°C° 0 mm 4 mps 756 mmHg 58%
    22:00 +26°C° 0 mm 4 mps 756 mmHg 60%
    23:00 +24°C° 0 mm 6 mps 757 mmHg 65%

    1 March, Thursday

    Time Temperature Precipitation Wind Pressure Humidity
    00:00 +23°C° 0 mm 7 mps 757 mmHg 70%
    01:00 +22°C° 0 mm 8 mps 758 mmHg 75%
    02:00 +22°C° 0 mm 8 mps 758 mmHg 75%
    03:00 +21°C° 0 mm 7 mps 758 mmHg 76%
    04:00 +20°C° 0 mm 6 mps 758 mmHg 77%
    05:00 +21°C° 0 mm 6 mps 759 mmHg 75%
    06:00 +21°C° 0 mm 6 mps 760 mmHg 73%
    07:00 +21°C° 0 mm 5 mps 760 mmHg 72%
    08:00 +22°C° 0 mm 5 mps 761 mmHg 67%
    09:00 +23°C° 0 mm 5 mps 761 mmHg 63%
    10:00 +25°C° 0 mm 5 mps 761 mmHg 58%
    11:00 +25°C° 0 mm 5 mps 761 mmHg 57%
    12:00 +25°C° 0 mm 5 mps 760 mmHg 56%
    13:00 +25°C° 0 mm 5 mps 760 mmHg 55%
    14:00 +25°C° 0 mm 5 mps 760 mmHg 56%
    15:00 +25°C° 0 mm 5 mps 760 mmHg 57%
    16:00 +25°C° 0 mm 5 mps 760 mmHg 58%
    17:00 +23°C° 0 mm 4 mps 760 mmHg 62%
    18:00 +22°C° 0 mm 4 mps 761 mmHg 65%
    19:00 +21°C° 0 mm 3 mps 761 mmHg 69%
    20:00 +21°C° 0 mm 3 mps 762 mmHg 71%
    21:00 +21°C° 0 mm 3 mps 762 mmHg 74%
    22:00 +20°C° 0 mm 3 mps 763 mmHg 76%
    23:00 +20°C° 0 mm 3 mps 762 mmHg 77%

    2 March, Friday

    Time Temperature Precipitation Wind Pressure Humidity
    00:00 +20°C° 0 mm 3 mps 762 mmHg 78%
    01:00 +20°C° 0 mm 3 mps 762 mmHg 79%
    02:00 +20°C° 0 mm 3 mps 762 mmHg 80%
    03:00 +20°C° 0 mm 3 mps 762 mmHg 81%
    04:00 +20°C° 0 mm 2 mps 761 mmHg 81%
    05:00 +20°C° 0 mm 2 mps 762 mmHg 81%
    06:00 +20°C° 0 mm 2 mps 762 mmHg 80%
    07:00 +20°C° 0 mm 2 mps 763 mmHg 80%
    08:00 +21°C° 0.1 mm 2 mps 763 mmHg 76%
    09:00 +22°C° 0.1 mm 3 mps 763 mmHg 73%
    10:00 +24°C° 0.1 mm 3 mps 763 mmHg 70%
    11:00 +25°C° 0 mm 3 mps 762 mmHg 65%
    12:00 +26°C° 0 mm 3 mps 762 mmHg 60%
    13:00 +26°C° 0 mm 3 mps 761 mmHg 56%
    14:00 +26°C° 0 mm 3 mps 761 mmHg 57%
    15:00 +26°C° 0 mm 3 mps 761 mmHg 58%
    16:00 +26°C° 0 mm 3 mps 761 mmHg 59%
    17:00 +25°C° 0 mm 3 mps 761 mmHg 65%
    18:00 +22°C° 0 mm 3 mps 762 mmHg 70%
    19:00 +21°C° 0 mm 3 mps 762 mmHg 76%
    20:00 +21°C° 0 mm 2 mps 762 mmHg 77%
    21:00 +21°C° 0 mm 2 mps 762 mmHg 79%
    22:00 +20°C° 0 mm 2 mps 762 mmHg 80%
    23:00 +20°C° 0 mm 2 mps 762 mmHg 82%
    Show more